Date String (YYYY-MM-DD hh:mm:ss) UTC,Instrument flags,absolute air pressure of the measurement (hPa),sample flow rate (lpm),inlet stack bypass flow (lpm),air temperature of the measurement (°C),ambient temperature measured by the external sensor (°C),aerosol sample conditioner tube jacket temperature (°C),OPC LED temperature (°C),internal box temperature (°C),relative humidity of the measurement (%),span deviation,mass concentration of particles derived from Lorenz-Mie calculation of OPC scattering (μg/m³),mass concentration of particles derived from Lorenz-Mie calculation of OPC scattering (μg/m³),mass concentration of particles derived from Lorenz-Mie calculation of OPC scattering (μg/m³)
DateTimeUTC,F1_M11,P_M11,Q1_M11,Q2_M11,T1_M11,T2_M11,T3_M11,T4_M11,T5_M11,U1_M11,ZSPAN_M11,X0_M11,X2_M11,X1_M11
2023-08-04 01:00:00,SystemResetWarning,0832.7,5.01,000.00,031.0,025.0,000.0,038.8,031.0,33.6,0000.0,0007.90,0003.84,0003.25
2023-08-04 01:01:00,SystemResetWarning,0832.7,5.00,000.00,030.9,025.1,000.0,038.8,030.8,34.0,0000.0,0007.75,0003.77,0003.22
2023-08-04 01:02:00,SystemResetWarning,0832.8,5.00,000.00,030.7,025.5,000.0,038.8,030.8,34.7,0000.0,0008.03,0003.70,0003.18
2023-08-04 01:03:00,SystemResetWarning,0832.8,5.00,000.00,030.7,026.0,000.0,038.9,030.9,34.8,0000.0,0008.35,0003.65,0003.15
2023-08-04 01:04:00,SystemResetWarning,0832.9,4.97,000.00,030.6,026.5,000.0,038.9,031.0,35.3,0000.0,0008.42,0003.68,0003.12
2023-08-04 01:05:00,SystemResetWarning,0832.8,5.03,000.00,030.8,026.9,000.0,038.9,031.2,35.1,0000.0,0008.40,0003.67,0003.12
2023-08-04 01:06:00,SystemResetWarning,0833.1,4.99,000.00,031.0,027.2,000.0,038.8,031.4,34.5,0000.0,0008.35,0003.67,0003.12
2023-08-04 01:07:00,SystemResetWarning,0832.9,4.98,000.00,031.2,027.5,000.0,038.9,031.5,34.4,0000.0,0008.34,0003.68,0003.12
2023-08-04 01:08:00,SystemResetWarning,0832.9,5.02,000.00,031.4,027.8,000.0,038.9,031.6,34.1,0000.0,0008.23,0003.65,0003.10
2023-08-04 01:09:00,SystemResetWarning,0833.4,5.00,000.00,031.4,027.9,000.0,039.0,031.6,33.3,0000.0,0008.22,0003.63,0003.10
2023-08-04 01:10:00,SystemResetWarning,0833.2,4.98,000.00,031.5,026.8,000.0,038.9,031.5,33.0,0000.0,0008.08,0003.58,0003.06
2023-08-04 01:11:00,SystemResetWarning,0833.1,5.01,000.00,031.5,025.3,000.0,038.8,031.2,33.2,0000.0,0008.07,0003.57,0003.01
2023-08-04 01:12:00,SystemResetWarning,0833.0,5.01,000.00,031.4,025.0,000.0,038.8,031.0,33.3,0000.0,0008.18,0003.58,0002.96
2023-08-04 01:13:00,SystemResetWarning,0833.0,5.00,000.00,031.2,025.2,000.0,038.9,030.8,33.5,0000.0,0008.29,0003.61,0002.91
2023-08-04 01:14:00,SystemResetWarning,0833.2,5.00,000.00,031.1,025.7,000.0,038.9,030.9,33.8,0000.0,0007.74,0003.62,0002.90
2023-08-04 01:15:00,SystemResetWarning,0833.3,5.00,000.00,031.0,026.1,000.0,039.0,031.0,33.9,0000.0,0008.36,0003.57,0002.88
2023-08-04 01:16:00,SystemResetWarning,0833.3,5.00,000.00,031.0,026.6,000.0,039.0,031.1,33.8,0000.0,0008.57,0003.52,0002.83
2023-08-04 01:17:00,SystemResetWarning,0833.0,5.00,000.00,031.0,027.0,000.0,039.0,031.2,33.7,0000.0,0008.14,0003.50,0002.81
2023-08-04 01:18:00,SystemResetWarning,0832.9,4.99,000.00,031.0,027.4,000.0,039.0,031.3,34.0,0000.0,0008.06,0003.46,0002.78
2023-08-04 01:19:00,SystemResetWarning,0833.0,5.00,000.00,031.0,027.7,000.0,039.0,031.4,34.3,0000.0,0007.96,0003.41,0002.75
2023-08-04 01:20:00,SystemResetWarning,0832.9,5.00,000.00,031.0,027.9,000.0,039.0,031.4,34.0,0000.0,0008.03,0003.40,0002.72
2023-08-04 01:21:00,SystemResetWarning,0832.9,5.00,000.00,031.0,027.8,000.0,039.0,031.5,34.3,0000.0,0008.17,0003.39,0002.70
2023-08-04 01:22:00,SystemResetWarning,0833.2,5.00,000.00,031.0,026.3,000.0,038.9,031.2,34.5,0000.0,0008.24,0003.33,0002.68
2023-08-04 01:23:00,SystemResetWarning,0833.2,5.00,000.00,030.9,025.1,000.0,038.7,031.0,34.3,0000.0,0008.18,0003.31,0002.67
2023-08-04 01:24:00,SystemResetWarning,0832.9,5.00,000.00,030.8,025.0,000.0,038.7,030.8,34.7,0000.0,0008.07,0003.28,0002.67
2023-08-04 01:25:00,SystemResetWarning,0832.8,4.99,000.00,030.6,025.3,000.0,038.7,030.8,35.0,0000.0,0007.87,0003.26,0002.66
2023-08-04 01:26:00,SystemResetWarning,0832.8,5.03,000.00,030.6,025.8,000.0,038.7,030.9,35.2,0000.0,0006.78,0003.27,0002.65
2023-08-04 01:27:00,SystemResetWarning,0832.9,4.99,000.00,030.9,026.2,000.0,038.7,031.1,34.6,0000.0,0006.05,0003.27,0002.65
2023-08-04 01:28:00,SystemResetWarning,0833.1,4.98,000.00,031.0,026.7,000.0,038.7,031.2,34.4,0000.0,0006.25,0003.27,0002.62
2023-08-04 01:29:00,SystemResetWarning,0833.2,5.02,000.00,031.1,027.1,000.0,038.8,031.3,34.4,0000.0,0006.34,0003.29,0002.60
2023-08-04 01:30:00,SystemResetWarning,0833.1,5.00,000.00,031.2,027.4,000.0,038.8,031.4,34.6,0000.0,0006.47,0003.31,0002.60
2023-08-04 01:31:00,SystemResetWarning,0833.0,4.99,000.00,031.2,027.7,000.0,038.9,031.4,34.7,0000.0,0006.34,0003.34,0002.60
2023-08-04 01:32:00,SystemResetWarning,0833.0,5.00,000.00,031.3,028.0,000.0,038.9,031.5,34.0,0000.0,0006.39,0003.35,0002.57
2023-08-04 01:33:00,SystemResetWarning,0833.1,4.99,000.00,031.3,027.5,000.0,038.9,031.5,34.2,0000.0,0006.05,0003.38,0002.58
2023-08-04 01:34:00,SystemResetWarning,0832.9,5.00,000.00,031.3,025.9,000.0,038.8,031.2,34.3,0000.0,0006.00,0003.37,0002.57
2023-08-04 01:35:00,SystemResetWarning,0832.9,5.00,000.00,031.2,025.0,000.0,038.7,031.1,34.3,0000.0,0005.90,0003.34,0002.57
2023-08-04 01:36:00,SystemResetWarning,0833.0,5.00,000.00,031.0,025.0,000.0,038.7,030.8,34.6,0000.0,0006.04,0003.38,0002.58
2023-08-04 01:37:00,SystemResetWarning,0833.1,5.00,000.00,030.9,025.4,000.0,038.8,030.8,35.1,0000.0,0006.13,0003.39,0002.60
2023-08-04 01:38:00,SystemResetWarning,0833.0,5.02,000.00,030.9,025.9,000.0,038.8,031.0,35.4,0000.0,0006.30,0003.43,0002.62
2023-08-04 01:39:00,SystemResetWarning,0832.9,5.00,000.00,031.2,026.4,000.0,038.9,031.2,35.1,0000.0,0006.05,0003.43,0002.63
2023-08-04 01:40:00,SystemResetWarning,0833.0,4.98,000.00,031.5,026.8,000.0,038.9,031.4,34.5,0000.0,0006.34,0003.43,0002.66
2023-08-04 01:41:00,SystemResetWarning,0833.0,4.99,000.00,031.6,027.2,000.0,038.9,031.5,33.9,0000.0,0007.08,0003.42,0002.68
2023-08-04 01:42:00,SystemResetWarning,0833.0,5.01,000.00,031.7,027.5,000.0,039.0,031.5,33.7,0000.0,0007.12,0003.42,0002.69
2023-08-04 01:43:00,SystemResetWarning,0833.0,5.00,000.00,031.8,027.8,000.0,039.1,031.6,33.7,0000.0,0007.51,0003.45,0002.71
2023-08-04 01:44:00,SystemResetWarning,0833.0,5.00,000.00,031.8,028.0,000.0,039.2,031.6,34.0,0000.0,0007.46,0003.45,0002.71
2023-08-04 01:45:00,SystemResetWarning,0833.3,4.99,000.00,031.9,027.9,000.0,039.2,031.7,34.2,0000.0,0007.42,0003.44,0002.72
2023-08-04 01:46:00,SystemResetWarning,0833.2,5.00,000.00,031.9,026.5,000.0,039.1,031.6,34.2,0000.0,0007.45,0003.46,0002.75
2023-08-04 01:47:00,SystemResetWarning,0833.0,5.00,000.00,031.8,025.2,000.0,039.1,031.3,34.3,0000.0,0007.67,0003.44,0002.75
2023-08-04 01:48:00,SystemResetWarning,0833.0,5.01,000.00,031.7,025.0,000.0,039.1,031.1,34.5,0000.0,0008.13,0003.46,0002.76
2023-08-04 01:49:00,SystemResetWarning,0833.1,5.01,000.00,031.5,025.3,000.0,039.1,030.9,34.7,0000.0,0008.09,0003.43,0002.75
2023-08-04 01:50:00,SystemResetWarning,0833.2,4.97,000.00,031.4,025.8,000.0,039.2,031.0,35.0,0000.0,0008.37,0003.43,0002.75
2023-08-04 01:51:00,SystemResetWarning,0833.2,5.04,000.00,031.4,026.3,000.0,039.2,031.2,34.8,0000.0,0008.12,0003.40,0002.74
2023-08-04 01:52:00,SystemResetWarning,0833.4,4.96,000.00,031.5,026.7,000.0,039.2,031.3,34.6,0000.0,0007.68,0003.41,0002.75
2023-08-04 01:53:00,SystemResetWarning,0833.5,5.02,000.00,031.5,027.1,000.0,039.3,031.4,34.7,0000.0,0007.76,0003.44,0002.76
2023-08-04 01:54:00,SystemResetWarning,0833.4,5.00,000.00,031.6,027.4,000.0,039.3,031.5,34.8,0000.0,0007.46,0003.40,0002.77
2023-08-04 01:55:00,SystemResetWarning,0833.4,5.00,000.00,031.6,027.7,000.0,039.3,031.5,34.9,0000.0,0007.46,0003.42,0002.81
2023-08-04 01:56:00,SystemResetWarning,0833.1,5.00,000.00,031.6,027.9,000.0,039.3,031.6,34.9,0000.0,0007.52,0003.44,0002.84
2023-08-04 01:57:00,SystemResetWarning,0833.1,5.00,000.00,031.6,028.0,000.0,039.4,031.7,34.8,0000.0,0007.57,0003.45,0002.84
2023-08-04 01:58:00,SystemResetWarning,0833.1,4.98,000.00,031.6,026.8,000.0,039.3,031.5,34.9,0000.0,0007.53,0003.49,0002.85
2023-08-04 01:59:00,SystemResetWarning,0833.2,5.00,000.00,031.5,025.3,000.0,039.1,031.3,35.0,0000.0,0007.36,0003.49,0002.84
